Home   Weather   Simi Valley   Past weeks

Flag for USA Past Weather in Simi Valley, California, USA — Yesterday and Last 2 Weeks

Now
81 °F

Sunny.


Feels Like: 79 °F
Forecast: 56 / 83 °F
Wind: 3 mph from North

Location: Van Nuys Airport

Current Time: Apr 30, 2017 at 11:41:57 am

Latest Report: Apr 30, 2017 at 10:51 am


Visibility: 10 mi

Pressure: 30.06 "Hg

Humidity: 11%

Dew Point: 22 °F

Location of Simi ValleyLocation

Past Weather in Simi Valley — Graph

°F

Simi Valley Temperature Yesterday

Maximum temperature yesterday: 86 °F (at 2:51 pm)
Minimum temperature yesterday: 65 °F (at 5:51 am)
Average temperature yesterday: 73 °F

High & Low Weather Summary for the Past Weeks

 TemperatureHumidityPressure
High93 °F (Apr 21, 2:51 pm)93% (Apr 19, 2:51 am)30.12 "Hg (Apr 19, 2:51 am)
Low53 °F (Apr 16, 6:51 am)5% (Apr 29, 12:51 pm)29.71 "Hg (Apr 27, 3:51 pm)
Average69 °F41%29.92 "Hg
* Reported Apr 15 9:51 am — Apr 30 9:51 am, Simi Valley, Weather by CustomWeather, © 2017

Note: Actual official high and low records may vary slightly from our data, if they occured in-between our weather recording intervals... More about our weather records

Advertising

Simi Valley Weather History for the Previous 24 Hours

Scroll right to see more
 ConditionsComfort  
Time TempWeatherWind HumidityBarometerVisibility
9:51 am
Sun, Apr 30
77 °FSunny.No wind13%30.06 "Hg10 mi
8:51 am70 °FSunny.No wind22%30.07 "Hg10 mi
7:51 am62 °FSunny.No wind35%30.07 "Hg10 mi
6:51 am57 °FSunny.No wind47%30.04 "Hg10 mi
5:51 am57 °FClear.No wind44%30.03 "Hg10 mi
4:51 am58 °FClear.3 mph41%30.03 "Hg10 mi
3:51 am62 °FClear.No wind26%30.03 "Hg10 mi
2:51 am61 °FClear.No wind36%30.03 "Hg10 mi
1:51 am62 °FClear.3 mph31%30.04 "Hg10 mi
12:51 am64 °FClear.3 mph28%30.03 "Hg10 mi
11:51 pm
Sat, Apr 29
65 °FClear.No wind26%30.03 "Hg10 mi
10:51 pm65 °FClear.No wind25%30.03 "Hg10 mi
9:51 pm68 °FClear.5 mph21%30.02 "Hg10 mi
8:51 pm70 °FClear.5 mph18%30.00 "Hg10 mi
7:51 pm73 °FClear.9 mph15%29.98 "Hg10 mi
6:51 pm80 °FSunny.6 mph10%29.95 "Hg10 mi
5:51 pm83 °FSunny.N/A9%29.93 "Hg10 mi
4:51 pm85 °FSunny.12 mph6%29.93 "Hg10 mi
3:51 pm86 °FSunny.10 mph5%29.94 "Hg10 mi
2:51 pm86 °FSunny.15 mph5%29.95 "Hg10 mi
1:51 pm84 °FSunny.15 mph5%29.97 "Hg10 mi
12:51 pm82 °FSunny.12 mph5%29.98 "Hg10 mi
11:51 am79 °FSunny.16 mph6%30.01 "Hg10 mi
Weather by CustomWeather, © 2017

See weather overviewHow to use our weather pages